Hourly Data Report for June 07, 2017

FISHER BRANCH (AUT)
MANITOBA

51°05'00.100" N
97°33'16.200" W
253.00 m
50309J6
71442
WSZ

Download Data

Hourly Data (June 2017)
Hourly Data Report for June 7, 2017
TIME
LST
Temp Definition
°C
Dew Point Definition
°C
Rel Hum Definition
%
Precip. Amount Definition
mm

Wind Dir Definition
10's deg

Wind Spd Definition
km/h
Visibility Definition
km
Stn Press Definition
kPa
Hmdx Definition


Wind Chill Definition


Weather Definition


00:00 15.7 14.2 91 0.0 29 11   98.52     LegendNANA
01:00 15.6 14.1 90 0.0 28 10   98.56     LegendNANA
02:00 14.9 13.6 92 0.0 32 7   98.57     LegendNANA
03:00 14.7 13.8 95 0.0 28 4   98.59     LegendNANA
04:00 14.5 13.8 95 0.0 29 4   98.60     LegendNANA
05:00 14.6 14.0 96 0.0 29 6   98.60     LegendNANA
06:00 14.9 14.3 96 0.0 28 9   98.62     LegendNANA
07:00 14.9 14.0 95 0.0 31 10   98.61     LegendNANA
08:00 14.9 13.9 94 0.0 30 9   98.65     LegendNANA
09:00 15.6 13.5 88 0.0 32 10   98.65     LegendNANA
10:00 14.9 12.8 87 0.0 34 11   98.66     LegendNANA
11:00 15.8 13.0 84 0.0 35 7   98.66     LegendNANA
12:00 17.0 13.5 79 0.0 11 3   98.66     LegendNANA
13:00 18.0 13.7 76 0.0 36 9   98.68     LegendNANA
14:00 18.6 13.3 71 0.0 2 8   98.65     LegendNANA
15:00 21.0 12.1 57 0.0 3 10   98.65     LegendNANA
16:00 20.8 12.2 58 0.0 5 9   98.63     LegendNANA
17:00 21.0 11.9 56 0.0 7 5   98.60     LegendNANA
18:00 22.2 12.5 54 0.0 4 7   98.58 25   LegendNANA
19:00 21.7 12.5 56 0.0 5 4   98.57     LegendNANA
20:00 20.0 12.2 61 0.0 34 7   98.57     LegendNANA
21:00 16.4 8.5 59 0.0 33 6   98.59     LegendNANA
22:00 13.0 8.9 76 0.0 25 4   98.60     LegendNANA
23:00 11.0 8.6 85 0.0 29 4   98.61     LegendNANA

Notes on Data Quality.

Legend

  • E = Estimated
  • M = Missing
  • NA = Not Available*
  • [empty] = Indicates an unobserved value
Date modified: